Flag for Brazil Weather past 2 weeks in Manaus, Amazonas, Brazil

Now
73 °F

Passing clouds.


Feels Like: 72 °F
Forecast: N/A
Wind: 3 mph from Southeast

Location: Manaus Aeroporto

Current Time: Jul 25, 2014 at 7:26:38 PM

Latest Report: Jul 25, 2014 at 7:00 PM


Visibility: N/A

Pressure: 29.89 "Hg

Humidity: 89%

Dew point: 70 °F

Location of ManausLocation

Historic Weather in Manaus — Graph

°F

Manaus temperature yesterday

Maximum temperature yesterday: 86 °F (at 11:00 AM)
Minimum temperature yesterday: 75 °F (at 2:00 AM)
Average temperature yesterday: 80 °F

Past Weeks' High & Low Weather Summary

 TemperatureHumidityPressure
High91 °F (Jul 17, 2:00 PM)94% (Jul 10, 7:00 PM)30.04 "Hg (Jul 10, 7:00 PM)
Low72 °F (Jul 13, 6:00 AM)52% (Jul 20, 3:00 PM)29.83 "Hg (Jul 21, 4:00 PM)
Average80 °F81%29.94 "Hg
* Reported Jul 10 6:00 PM — Jul 25 6:00 PM, Manaus, Weather by CustomWeather, © 2014

Note: Actual official high and low records may vary slightly from our data, if they occured in-between our weather recording intervals... More about our weather records

Advertising

Manaus weather history for previous 24 hours

 ConditionsComfort  
Time TempWeatherWind HumidityBarometerVisibility
6:00 PM
Jul 25
73 °FPartly sunny.3 mph94%29.86 "HgN/A
5:00 PM81 °FScattered clouds.5 mph79%29.86 "HgN/A
4:00 PM81 °FScattered clouds.5 mph79%29.83 "HgN/A
3:00 PM82 °FScattered clouds.5 mph74%29.86 "HgN/A
2:00 PM81 °FPartly sunny.6 mph79%29.86 "HgN/A
1:00 PM75 °FBroken clouds.5 mph89%29.92 "HgN/A
12:00 PM73 °FLight rain. Partly sunny.14 mph94%29.98 "Hg1 mi
11:00 AM81 °FBroken clouds.6 mph74%29.95 "HgN/A
10:00 AM79 °FBroken clouds.6 mph79%29.98 "HgN/A
9:00 AM77 °FScattered showers. Broken clouds.12 mph83%29.98 "HgN/A
8:00 AM75 °FScattered showers. Partly sunny.6 mph89%29.98 "HgN/A
7:00 AM77 °FPartly sunny.2 mph89%29.92 "HgN/A
6:00 AM77 °FPassing clouds.2 mph89%29.89 "HgN/A
5:00 AM77 °FPassing clouds.2 mph89%29.89 "HgN/A
4:00 AM77 °FPassing clouds.3 mph89%29.89 "HgN/A
3:00 AM77 °FClear.2 mph89%29.89 "Hg10 mi
2:00 AM77 °FClear.2 mph89%29.89 "Hg10 mi
1:00 AM77 °FClear.2 mph89%29.92 "Hg10 mi
12:00 AM77 °FClear.2 mph89%29.92 "Hg10 mi
11:00 PM
Jul 24
79 °FClear.2 mph84%29.92 "Hg10 mi
10:00 PM79 °FPassing clouds.2 mph84%29.92 "HgN/A
9:00 PM81 °FPassing clouds.3 mph79%29.89 "HgN/A
8:00 PM81 °FPassing clouds.5 mph79%29.89 "HgN/A
7:00 PM81 °FPassing clouds.3 mph79%29.86 "HgN/A
Weather by CustomWeather, © 2014

See weather overviewHow to use our weather pages